Location: Unspecified
(43.8044°N, 11.0278°E)
Time: 06:15:56
(UTC+02:00)

Cosmos 2058 - Visible Passes

Search period start: 23 May 2015 00:00
Search period end: 02 June 2015 00:00
Orbit: 567 x 588 km, 82.5° (Epoch: 22 May)

Date Brightness Start Highest point End Pass type
(mag) Time Alt. Az. Time Alt. Az. Time Alt. Az.
23 May 2.7 02:39:44 82° S 02:39:54 88° E 02:44:07 10° N visible
24 May 5.6 01:07:52 10° E 01:07:52 10° E 01:08:26 10° ENE visible
24 May 2.9 02:44:09 66° W 02:44:20 67° W 02:48:31 10° N visible
25 May 5.3 01:12:16 14° E 01:12:16 14° E 01:14:25 10° NE visible
25 May 3.3 02:48:34 48° W 02:48:47 48° WNW 02:52:52 10° N visible
26 May 4.9 01:16:40 19° E 01:16:40 19° E 01:19:28 10° NE visible
26 May 3.8 02:52:58 35° W 02:53:16 36° WNW 02:57:08 10° N visible
27 May 4.5 01:21:03 25° E 01:21:03 25° E 01:24:16 10° NNE visible
27 May 4.2 02:57:20 26° W 02:57:45 27° WNW 03:01:20 10° NNW visible
28 May 4.1 01:25:25 33° E 01:25:25 33° E 01:28:56 10° NNE visible
28 May 4.6 03:01:42 20° W 03:02:17 20° WNW 03:05:25 10° NNW visible
29 May 3.6 01:29:46 45° E 01:29:46 45° E 01:33:31 10° NNE visible
29 May 5.0 03:06:03 15° W 03:06:50 16° WNW 03:09:20 10° NNW visible
30 May 3.2 01:34:06 62° ENE 01:34:06 62° ENE 01:38:01 10° NNE visible
30 May 5.3 03:10:24 11° W 03:11:26 12° WNW 03:12:53 10° NW visible
31 May 2.9 01:38:26 81° NNE 01:38:26 81° NNE 01:42:27 10° N visible
01 Jun 5.5 00:06:27 10° E 00:06:27 10° E 00:06:56 10° ENE visible
01 Jun 3.0 01:42:44 67° WNW 01:42:44 67° WNW 01:46:50 10° N visible
